This is the latest recevied weather packets stored in our database for station/object LETO. If no packets are shown the sender has not sent any weather packets the latest 1 day(s).
| Time | Temp. | Humidity | Pressure | Rain* | Wind** | Luminosity | Snow |
|---|---|---|---|---|---|---|---|
| 1777982017 | 16.67° C | 36% | 1013 hPa | - | 4.47 m/s, 230° | - | - |
| 1777981423 | 16.67° C | 36% | 1013 hPa | - | 4.47 m/s, 230° | - | - |
| 1777980821 | 16.67° C | 36% | 1013 hPa | - | 1.79 m/s, 200° | - | - |
| 1777980223 | 16.67° C | 36% | 1013 hPa | - | 1.79 m/s, 200° | - | - |
| 1777979623 | 16.67° C | 36% | 1013 hPa | - | 1.79 m/s, 200° | - | - |
| 1777979022 | 15° C | 44% | 1005.4 hPa | - | 1.79 m/s, 260° | - | - |
| 1777978424 | 15° C | 44% | 1006.1 hPa | - | 1.79 m/s, 260° | - | - |
| 1777977821 | 15° C | 44% | 1006.1 hPa | - | 1.79 m/s, 260° | - | - |
| 1777977221 | 15° C | 44% | 1013 hPa | - | 0.89 m/s, 180° | - | - |
| 1777976619 | 15° C | 44% | 1013 hPa | - | 0.89 m/s, 180° | - | - |
| 1777976021 | 15° C | 44% | 1013 hPa | - | 0.89 m/s, 180° | - | - |
| 1777975420 | 13.89° C | 44% | 1013 hPa | - | 1.79 m/s, 150° | - | - |
| 1777974820 | 13.89° C | 44% | 1013 hPa | - | 1.79 m/s, 150° | - | - |
| 1777974233 | 13.89° C | 44% | 1013 hPa | - | 1.79 m/s, 150° | - | - |
| 1777973621 | 15° C | 47% | 1013 hPa | - | 0 m/s | - | - |
| 1777973024 | 15° C | 47% | 1013 hPa | - | 0 m/s | - | - |
| 1777972421 | 15° C | 47% | 1013 hPa | - | 0 m/s | - | - |
| 1777971823 | 13.89° C | 54% | 1013 hPa | - | 1.34 m/s, 70° | - | - |
| 1777971226 | 13.89° C | 54% | 1013 hPa | - | 1.34 m/s, 70° | - | - |
| 1777970618 | 13.89° C | 54% | 1013 hPa | - | 1.34 m/s, 70° | - | - |
| 1777970025 | 13.89° C | 50% | 1013 hPa | - | 1.34 m/s, 60° | - | - |
| 1777969423 | 13.89° C | 50% | 1013 hPa | - | 1.34 m/s, 60° | - | - |
| 1777968821 | 13.89° C | 50% | 1013 hPa | - | 1.34 m/s, 60° | - | - |
| 1777968223 | 12.78° C | 62% | 1013 hPa | - | 0.45 m/s, 140° | - | - |
| 1777967620 | 12.78° C | 62% | 1013 hPa | - | 0.45 m/s, 140° | - | - |
* Rain since midnight (hover to see other rain measurements)
** Current wind speed in m/s (hover to see current wind gust speed)